Vorticity
nan nan nan nan nan nan nan nan nan nan nan nan nan nan nan nan nan nan nan nan nan nan nan nan nan nan nan nan nan nan nan nan nan nan nan nan nan nan nan nan nan nan nan nan nan nan nan nan nan nan nan nan nan nan nan nan nan nan nan nan nan nan nan nan nan nan nan nan nan
nan 7 8 8 8 8 8 8 8 7 6 7 7 7 8 8 9 8 7 7 6 6 7 7 4 2 1 5 10 11 10 7 7 9 10 11 9 9 10 9 7 7 8 10 14 15 10 10 17 18 14 10 8 10 11 10 9 10 9 11 14 14 14 14 12 12 15 18 nan
nan 8 8 8 7 6 6 7 6 5 6 7 7 7 8 9 9 8 7 5 4 6 8 6 4 4 6 10 11 9 8 7 7 10 11 10 7 8 9 8 6 7 10 11 11 10 7 12 18 17 13 7 6 9 11 10 10 11 12 15 16 14 12 11 11 14 16 15 nan
nan 8 9 8 6 6 6 6 4 6 8 10 9 9 9 9 8 7 6 5 7 8 7 4 5 7 9 8 6 7 6 6 8 11 11 8 6 7 8 7 7 9 9 8 7 7 8 16 21 16 10 6 10 12 11 8 9 13 15 16 14 11 10 10 11 12 12 10 nan
nan 9 8 7 7 8 8 6 5 7 9 9 8 8 8 9 8 6 6 7 7 5 2 3 7 7 6 4 5 8 8 9 12 12 10 7 8 8 7 7 9 10 9 7 6 7 9 19 23 14 9 11 12 8 4 4 10 13 15 14 12 12 11 9 10 10 9 8 nan
nan 8 7 6 7 8 8 6 7 8 9 8 5 5 5 5 4 3 3 4 4 3 5 10 10 8 5 6 9 11 11 12 11 9 7 8 8 7 7 8 10 10 8 6 5 8 11 19 20 13 10 10 9 4 2 7 12 12 12 12 12 13 11 10 11 10 8 5 nan
nan 8 8 7 8 8 6 5 8 9 9 8 6 5 3 2 0 1 3 5 7 8 11 12 8 6 5 8 10 10 10 10 8 7 8 9 6 6 8 9 9 9 8 7 8 10 12 17 17 11 9 10 9 4 5 8 9 9 9 10 12 11 10 12 12 9 6 3 nan
nan 8 8 8 8 8 7 7 7 8 8 7 6 5 5 4 4 5 9 10 10 9 10 7 3 4 6 8 9 9 9 9 9 8 9 7 5 7 9 10 10 9 10 10 9 9 12 17 14 9 9 10 8 4 2 5 8 9 9 12 12 10 9 9 8 5 3 5 nan
nan 8 8 9 9 9 8 8 8 7 6 4 4 6 7 8 8 10 12 13 9 7 7 4 3 5 8 9 10 11 11 10 9 8 8 6 7 9 10 11 9 10 10 10 9 9 15 17 11 7 7 7 3 2 1 6 9 10 13 15 10 6 5 5 4 4 6 8 nan
nan 7 8 9 9 8 8 9 9 9 8 8 8 9 9 10 10 12 12 10 6 5 5 4 5 7 9 11 13 12 11 10 9 8 7 7 7 8 10 9 8 9 9 10 10 12 16 15 8 4 4 3 2 4 5 7 9 11 15 13 5 4 5 6 6 8 10 9 nan
nan 7 8 8 8 8 8 9 11 11 11 10 10 11 11 11 11 10 8 6 4 5 6 6 7 9 11 13 12 11 10 9 7 6 7 7 7 8 9 8 7 8 8 9 12 15 15 9 3 2 4 5 8 10 8 7 8 9 11 7 4 6 8 8 10 12 11 9 nan
nan 8 8 7 7 8 9 10 11 11 10 9 10 11 12 11 9 8 7 6 7 9 10 9 9 10 12 12 10 10 9 7 7 7 7 7 8 8 8 8 8 8 8 10 13 13 10 5 3 3 5 10 14 10 5 5 8 9 9 6 7 8 8 8 10 11 9 7 nan
nan 8 8 8 7 8 9 11 11 10 9 9 11 11 11 9 9 9 9 10 11 11 10 9 10 11 11 9 8 8 8 7 8 8 8 8 8 8 8 9 9 9 10 10 10 8 6 4 4 6 7 11 11 6 4 6 9 9 8 8 8 8 7 8 8 8 6 7 nan
nan 8 8 8 8 10 10 11 11 10 9 9 10 10 10 10 10 11 11 11 10 10 9 10 11 10 7 6 7 7 8 8 8 8 8 8 7 7 8 8 9 10 10 8 6 5 6 6 7 8 9 10 8 6 7 9 9 9 8 8 8 7 7 8 8 8 8 8 nan
nan 9 8 8 9 9 9 11 11 10 9 10 10 10 10 10 10 10 10 9 10 11 10 9 8 6 6 6 7 8 9 10 9 9 9 9 8 8 8 8 9 10 8 6 5 6 6 7 9 10 10 10 9 8 9 9 9 9 8 8 7 8 8 7 8 9 9 9 nan
nan 9 9 8 8 8 8 10 10 8 8 8 8 8 9 10 10 9 9 9 12 11 8 6 7 7 7 8 9 11 12 11 11 11 10 10 8 8 8 9 10 10 8 6 6 6 6 8 9 10 10 11 10 10 10 10 10 9 9 8 9 9 8 8 8 9 9 8 nan
nan 8 8 8 8 8 7 8 7 6 6 5 7 9 9 10 9 8 8 10 9 7 4 5 7 7 7 7 10 11 12 11 11 10 10 8 8 8 9 10 11 10 9 7 6 7 7 7 8 9 10 11 11 11 11 11 10 9 9 10 11 11 10 9 10 10 10 9 nan
nan 8 8 8 8 8 7 7 6 5 5 7 8 9 9 8 7 7 8 8 7 5 5 8 9 8 6 7 9 10 10 9 9 8 8 7 8 9 9 10 11 11 10 8 7 7 7 7 8 8 9 11 11 11 10 9 9 9 10 11 12 12 11 10 10 10 9 9 nan
nan 8 8 8 8 8 8 8 7 7 7 9 9 8 7 6 7 8 8 8 7 7 8 10 10 9 7 7 8 8 9 9 9 9 9 9 9 9 9 10 12 12 12 10 9 9 9 8 8 8 9 11 9 8 7 7 7 8 9 12 12 11 10 10 9 9 8 9 nan
nan 8 8 8 8 8 8 8 8 8 8 8 7 7 7 8 9 8 8 8 8 9 10 10 9 8 7 8 8 9 10 11 10 10 11 10 10 9 10 11 12 13 13 12 11 11 10 8 7 9 13 13 10 8 6 6 7 8 10 12 11 9 8 7 7 8 9 10 nan
nan 8 8 8 8 8 8 8 8 8 8 8 8 8 9 9 9 9 9 9 10 10 11 10 10 9 8 9 9 10 11 10 9 10 10 10 10 10 10 11 12 13 13 13 13 12 10 7 7 11 17 20 15 11 7 6 7 8 9 8 6 6 6 6 7 8 9 10 nan
nan 8 8 8 8 8 8 8 8 8 8 8 9 9 9 10 10 9 10 10 11 11 11 11 11 10 9 9 9 10 10 8 7 8 9 9 9 9 10 11 11 12 13 14 14 12 10 8 10 15 23 25 18 10 6 5 7 8 7 5 5 6 6 7 8 9 9 9 nan
nan 8 9 10 8 8 8 8 8 8 8 9 9 9 9 9 9 9 10 11 11 10 11 13 12 10 10 10 9 9 9 7 7 7 8 8 8 8 9 11 11 12 14 16 12 9 7 9 13 20 26 25 16 9 5 6 7 7 7 7 7 8 8 8 8 8 8 8 nan
nan 7 8 8 7 8 8 8 8 8 8 8 8 9 9 9 9 10 10 10 10 10 12 11 9 9 10 11 11 11 10 9 9 9 8 8 8 9 11 12 12 14 16 12 0 -4 -2 4 11 18 25 23 15 9 7 7 6 6 7 8 9 9 9 8 7 7 7 8 nan
nan 7 7 6 7 8 8 8 8 8 8 8 8 9 9 9 10 10 10 9 10 10 10 9 10 11 13 13 12 12 11 11 10 9 9 9 9 10 12 13 14 16 15 1 -11 -10 -5 1 6 13 20 23 17 11 8 7 6 6 7 9 9 10 9 9 9 8 8 10 nan
nan 8 7 7 7 8 8 8 8 8 8 8 8 8 9 10 10 9 9 9 10 10 11 13 13 13 13 13 12 11 11 11 10 9 9 10 9 10 12 13 15 15 8 -7 -10 -4 1 4 6 11 19 24 21 16 10 7 7 7 9 10 12 11 11 11 9 9 10 10 nan
nan 8 8 8 8 8 9 9 9 9 8 8 8 9 9 9 8 8 8 9 10 11 13 15 14 14 15 14 11 10 10 9 9 10 11 10 9 9 11 14 15 10 -2 -12 -6 1 6 8 8 11 18 23 26 22 14 7 6 9 11 13 13 12 11 9 8 9 10 9 nan
nan 7 7 7 8 8 9 9 8 8 8 8 9 9 8 8 8 8 9 10 10 12 14 15 15 16 15 10 8 8 9 9 11 12 11 9 8 9 11 12 10 1 -8 -10 -1 5 8 8 9 9 12 21 31 26 17 8 7 9 11 13 12 10 9 9 9 10 10 10 nan
nan 7 8 8 8 8 9 9 8 8 8 9 9 8 8 8 9 9 9 9 10 12 14 13 13 10 7 4 6 8 10 12 13 11 9 8 8 10 10 9 7 2 -4 -1 5 8 8 8 7 7 8 21 33 28 18 8 6 7 9 10 8 7 6 7 8 9 10 10 nan
nan 8 8 8 8 8 8 8 8 8 9 9 8 8 8 9 9 9 10 10 11 12 11 9 6 4 3 5 8 10 10 11 11 9 8 8 8 9 9 9 9 6 2 3 7 7 7 7 7 7 7 21 36 33 20 6 3 5 7 7 4 3 3 6 9 11 13 10 nan
nan 8 8 8 8 8 8 8 8 8 8 7 7 8 8 9 9 9 10 11 11 10 8 6 5 5 7 9 9 8 8 9 9 9 8 8 8 8 8 10 10 8 4 3 6 7 7 7 7 7 7 23 41 37 20 5 2 4 5 3 1 2 6 11 12 12 11 10 nan
nan 8 8 8 8 8 8 8 8 8 7 7 8 8 9 9 9 9 10 10 10 9 9 9 9 9 10 10 9 8 8 9 8 8 7 7 8 8 9 12 13 10 4 3 6 7 8 8 9 8 9 28 44 35 18 4 4 5 5 4 3 4 9 11 10 11 13 13 nan
nan 8 8 8 8 8 8 8 8 8 7 8 8 9 9 9 9 10 10 11 10 10 10 10 10 11 11 11 10 10 10 10 9 7 7 8 8 9 11 16 16 8 1 2 6 8 9 10 10 9 11 32 44 31 15 5 5 6 6 5 5 7 9 12 14 15 16 13 nan
nan 8 8 8 8 8 8 8 8 7 7 8 8 8 9 9 9 10 11 11 10 10 10 10 10 11 11 10 10 10 10 9 8 8 8 9 9 10 12 16 12 1 -3 1 7 9 10 11 9 10 15 35 42 28 13 6 5 4 3 2 4 8 12 16 17 17 15 10 nan
nan 7 8 8 8 8 8 8 7 7 7 8 8 8 8 9 9 10 10 10 9 9 9 9 10 10 10 10 10 10 9 8 8 8 9 9 9 9 11 11 4 -3 -2 4 8 9 9 9 7 9 20 39 40 25 14 9 7 4 2 3 5 8 13 17 17 16 14 10 nan
nan 7 7 7 8 7 7 8 7 7 8 8 8 8 8 9 10 10 10 10 10 9 9 9 10 10 10 10 11 10 9 8 8 9 9 9 9 9 9 9 5 1 3 6 7 7 7 6 5 9 22 38 35 22 14 10 8 6 4 5 5 8 13 17 17 17 16 12 nan
nan 8 7 8 7 8 8 8 8 7 7 8 8 8 8 9 10 11 10 11 10 9 9 9 9 9 10 10 10 9 8 8 8 8 8 9 9 8 8 8 7 6 6 5 5 6 6 6 6 11 23 32 29 20 14 10 7 6 6 6 6 8 13 15 15 17 16 10 nan
nan 8 8 7 7 7 7 7 7 7 7 8 8 8 9 10 11 10 10 10 9 9 9 9 9 10 10 10 10 9 8 8 8 8 8 9 8 7 6 7 8 8 5 3 3 5 6 8 10 15 24 27 24 22 17 12 7 7 7 7 6 7 12 13 12 13 12 2 nan
nan 9 8 7 7 7 7 7 7 7 8 8 8 8 8 10 10 9 9 9 9 8 9 9 9 10 10 11 11 10 9 8 9 9 9 9 7 6 6 9 9 8 4 2 3 5 7 9 14 21 32 33 28 24 20 14 9 8 7 8 7 7 10 12 12 10 8 -1 nan
nan 9 8 8 7 7 7 7 7 8 8 8 8 8 9 10 9 9 10 9 8 9 10 10 9 9 10 11 12 11 10 9 10 9 9 8 7 8 10 13 11 9 7 6 6 7 8 10 16 25 41 41 30 26 22 16 11 9 9 9 9 9 9 10 11 10 8 3 nan
nan nan nan nan nan nan nan nan nan nan nan nan nan nan nan nan nan nan nan nan nan nan nan nan nan nan nan nan nan nan nan nan nan nan nan nan nan nan nan nan nan nan nan nan nan nan nan nan nan nan nan nan nan nan nan nan nan nan nan nan nan nan nan nan nan nan nan nan nan
CAPE
nan nan nan nan nan nan nan nan nan nan nan nan nan nan nan nan nan nan nan nan nan nan nan nan nan nan nan nan nan nan nan nan nan nan nan nan 0 6 6 7 7 7 7 4 3 3 1 0 2 2 14 23 17 6 6 0 0 0 0 1 1 1 1 3 2 2 3 4 5
nan nan nan nan nan nan nan nan nan nan nan nan nan nan nan nan nan nan nan nan nan nan nan nan nan nan nan nan nan nan nan nan nan nan nan nan 0 4 4 7 8 11 11 7 3 3 1 0 2 2 12 29 24 12 12 2 0 0 0 1 0 0 0 1 1 1 2 2 3
nan nan nan nan nan nan nan nan nan nan nan nan nan nan nan nan nan nan nan nan nan nan nan nan nan nan nan nan nan nan nan nan nan nan nan nan nan 1 1 7 8 15 15 7 2 2 1 nan 1 1 12 27 31 26 26 11 1 1 1 0 nan nan nan nan 1 1 1 0 1
nan nan nan nan nan nan nan nan nan nan nan nan nan nan nan nan nan nan nan nan nan nan nan nan nan nan nan nan nan nan nan nan nan nan nan nan nan 0 0 6 7 9 9 6 2 2 1 nan 0 0 5 15 28 30 30 16 11 4 4 0 nan nan nan nan 0 0 nan 0 0
nan nan nan nan nan nan nan nan nan nan nan nan nan nan nan nan nan nan nan nan nan nan nan nan nan nan nan nan nan nan nan nan 0 nan nan nan nan nan nan 1 5 7 7 6 3 3 0 nan nan nan 1 9 15 19 19 18 15 13 13 7 2 nan nan nan 0 0 nan 0 nan
nan nan nan nan nan nan nan nan nan nan nan nan nan nan nan nan nan nan nan nan nan nan nan nan nan nan nan nan nan nan nan nan nan nan nan nan nan nan nan 0 2 4 4 5 3 3 1 nan nan nan nan 2 7 10 10 13 16 14 14 16 13 8 8 7 6 6 5 3 3
nan nan nan nan nan nan nan nan nan nan nan nan nan nan nan nan nan nan nan nan nan nan nan nan nan nan nan nan nan nan nan nan nan nan nan nan nan nan nan nan 1 2 2 3 2 2 1 nan nan nan nan nan 1 3 3 6 9 12 12 15 17 18 18 22 15 15 13 16 18
nan nan nan nan nan nan nan nan nan nan nan nan nan nan nan nan nan nan nan nan nan nan nan nan nan nan nan nan 0 0 nan nan nan nan nan nan nan nan nan nan 0 1 1 2 1 1 1 nan nan nan nan nan nan nan nan 2 6 9 9 11 12 18 18 19 19 19 15 13 15
nan nan nan nan nan nan nan nan nan nan nan nan nan nan nan nan nan nan nan nan nan nan nan nan nan nan nan nan 0 0 0 0 0 nan nan nan nan nan nan nan nan 0 0 0 0 0 1 nan nan nan nan nan nan nan nan 1 4 7 7 6 8 11 11 13 15 15 8 7 8
nan nan nan nan nan nan nan nan nan nan nan nan nan nan nan nan nan nan nan nan nan nan nan nan nan nan nan 0 0 0 1 1 2 2 2 2 2 1 1 nan nan nan nan nan 0 0 0 nan nan nan nan nan nan nan nan 2 3 4 4 2 4 6 6 4 5 5 3 5 6
nan nan nan nan nan nan nan nan nan nan nan nan nan nan nan nan nan nan nan nan nan nan nan nan nan 0 0 1 1 1 1 1 2 4 4 5 5 2 2 0 0 nan nan nan nan nan 1 0 nan nan nan nan nan nan nan 0 0 2 2 1 2 3 3 0 0 0 1 2 1
nan nan nan nan nan nan nan nan nan nan nan nan nan nan nan nan nan nan nan nan nan nan nan nan 0 2 2 2 3 3 3 3 3 6 6 7 7 3 3 1 0 nan nan nan nan nan 1 2 1 1 nan nan nan nan nan nan nan 0 0 1 1 1 1 1 0 0 1 0 nan
nan nan nan nan nan nan nan nan nan nan nan nan nan nan nan nan nan nan nan nan nan nan nan nan 1 3 3 3 3 3 4 3 5 7 7 9 8 4 4 1 0 nan nan nan nan nan 1 3 3 3 0 nan nan nan nan nan nan nan nan 0 0 0 0 1 1 1 1 0 nan
nan nan nan nan nan nan nan nan nan nan nan nan nan nan nan nan nan nan nan nan nan nan nan 0 2 3 3 3 3 3 5 6 7 7 7 10 6 5 5 2 0 nan nan nan 0 0 1 2 2 2 1 nan nan nan nan nan nan nan nan nan nan 0 0 0 1 1 2 1 0
nan nan nan nan nan nan nan nan nan nan nan nan nan nan nan nan nan nan nan nan nan nan nan 0 1 3 3 4 5 5 6 7 7 8 8 8 6 6 6 3 1 0 0 nan nan nan 0 2 2 2 2 nan nan nan nan nan nan nan nan nan nan 0 0 nan 0 0 1 1 0
nan nan nan nan nan nan nan nan nan nan nan nan nan nan nan nan nan nan nan nan nan nan nan 1 2 4 4 6 7 7 6 6 5 8 8 8 7 7 7 6 2 nan nan 0 0 0 0 0 0 0 1 0 nan nan nan nan nan nan nan nan 0 0 0 nan nan nan 0 nan nan
nan nan nan nan nan nan nan nan nan nan nan nan nan nan nan nan nan nan nan nan nan nan nan 1 2 3 3 7 7 7 6 6 4 8 8 10 11 10 10 9 4 nan nan nan 1 1 1 nan 0 0 1 0 nan nan nan nan nan nan nan nan 0 nan nan 0 0 0 nan nan 0
nan nan nan nan nan nan nan nan nan nan nan nan nan nan nan nan nan nan nan nan nan 1 1 1 4 5 5 7 7 7 7 9 11 14 14 18 20 18 18 15 12 2 2 nan nan nan nan nan nan nan 0 4 0 nan nan nan nan nan nan nan nan 1 1 1 0 0 0 0 nan
nan nan nan nan nan nan nan nan nan nan 0 nan 0 0 0 0 0 0 0 0 nan 0 0 1 1 4 4 5 7 7 12 12 19 21 21 21 19 17 17 14 12 1 1 nan nan nan nan nan nan nan nan 4 2 nan nan nan nan nan nan nan nan 1 1 1 0 0 0 nan nan
nan nan nan nan nan nan nan nan nan nan 0 0 1 1 1 1 0 0 0 1 nan nan nan 0 1 2 2 4 9 9 14 13 20 23 23 22 18 16 16 15 10 1 1 nan nan nan nan nan nan nan nan 2 4 nan nan nan nan nan nan nan nan 1 1 1 1 1 0 0 nan
nan nan nan nan nan nan nan nan 0 0 0 0 1 1 1 1 1 1 1 0 nan nan nan nan 0 1 1 2 7 7 11 12 13 19 19 21 19 16 16 15 10 2 2 nan nan nan nan nan nan nan nan 11 2 nan nan nan nan nan nan nan nan nan nan nan nan nan 0 nan nan
nan nan nan nan nan nan nan nan 0 0 0 0 1 2 2 2 1 0 0 0 nan nan nan nan nan 1 1 2 7 7 9 8 9 12 12 14 14 15 15 15 8 3 3 nan nan nan nan nan nan nan 30 30 nan nan nan nan nan nan nan nan nan nan nan nan nan nan nan nan nan
nan nan nan nan nan nan nan nan 0 0 0 1 1 2 2 2 1 0 0 0 0 nan nan 0 0 2 2 4 7 7 8 8 4 5 5 8 8 10 10 12 10 8 8 2 nan nan nan nan 7 7 41 18 nan nan nan nan nan nan nan nan nan nan nan nan nan nan nan nan nan
nan nan nan nan nan nan nan nan 0 0 0 1 2 2 2 2 1 1 1 0 0 0 0 0 1 1 1 3 6 6 6 7 6 4 4 3 3 5 5 8 9 8 8 1 7 7 15 22 31 31 48 1 nan nan nan nan nan 0 0 0 nan nan nan nan nan nan nan 0 nan
nan nan nan nan nan nan nan 0 0 0 1 1 1 1 1 2 1 1 1 1 1 1 1 1 0 0 0 1 3 3 4 4 4 3 3 2 2 3 3 3 4 2 2 2 86 86 164 155 109 109 57 4 0 nan nan nan 1 1 1 1 1 0 0 1 1 1 0 2 2
nan nan nan nan nan nan nan nan 0 0 0 1 1 1 1 2 1 1 1 1 1 0 0 0 0 2 2 0 1 1 1 1 1 1 1 0 2 2 2 1 2 nan nan 11 97 97 167 237 269 269 162 28 3 0 0 2 2 1 1 1 2 3 3 4 7 7 7 3 1
nan nan nan nan nan nan nan nan nan nan 0 0 1 1 1 2 1 2 2 1 1 nan nan nan nan 1 1 nan nan nan nan nan nan 0 0 0 0 0 0 1 nan nan nan 24 103 103 167 230 296 296 280 89 31 2 2 nan nan nan nan nan 0 5 5 9 16 16 17 5 0
nan nan nan nan nan nan nan nan nan nan nan nan 0 1 1 1 2 1 1 1 1 0 0 nan nan nan nan nan nan nan nan nan nan nan nan nan 0 0 0 0 nan 3 3 42 108 108 156 216 288 288 314 205 57 nan nan nan nan nan nan nan nan 6 6 12 25 25 26 7 nan
nan nan nan nan nan nan nan nan nan nan nan nan 0 1 1 1 1 1 1 1 1 0 0 nan nan nan nan nan nan nan nan nan nan nan nan nan nan 0 0 0 0 8 8 43 92 92 145 211 281 281 324 311 54 nan nan nan nan nan nan nan nan 8 8 25 37 37 28 12 nan
nan nan nan nan nan nan nan nan nan nan nan nan 0 1 1 1 1 1 1 1 0 nan nan nan nan nan nan nan nan nan nan nan nan nan nan nan 0 0 0 1 nan 6 6 35 84 84 146 203 271 271 297 339 143 nan nan nan nan nan nan nan nan 16 16 30 38 38 34 9 nan
nan nan nan nan nan nan nan nan nan nan nan nan 0 1 1 1 1 1 1 1 0 0 0 nan nan nan nan nan nan nan nan nan nan nan nan nan 2 1 1 0 nan 5 5 33 83 83 146 211 252 252 287 353 175 nan nan nan nan nan nan nan 5 25 25 38 36 36 28 9 nan
nan nan nan nan nan nan nan nan nan nan nan nan 0 1 1 1 0 0 0 0 0 0 0 nan nan nan nan nan nan nan nan nan nan nan nan 0 0 nan nan nan nan 3 3 34 94 94 152 203 234 234 269 386 174 nan nan nan nan nan nan nan 10 24 24 23 22 22 18 5 nan
nan nan nan nan nan nan nan nan nan nan nan nan 0 0 0 1 0 1 1 1 0 nan nan nan nan nan nan nan nan nan nan nan nan 0 0 1 0 nan nan nan nan 6 6 42 106 106 151 188 211 211 253 393 124 nan nan nan nan nan nan nan 11 21 21 21 14 14 14 2 nan
nan nan nan nan nan nan nan nan nan nan nan nan nan 0 0 1 1 1 1 1 nan nan nan nan nan nan nan nan nan nan nan nan nan nan nan nan nan nan nan nan nan 12 12 65 110 110 148 172 196 196 256 351 83 nan nan nan nan nan nan nan 4 8 8 19 14 14 0 nan nan
nan nan nan nan nan nan nan nan nan nan nan nan nan 0 0 1 1 0 0 nan nan nan nan nan nan nan nan nan nan nan nan nan nan nan nan nan nan nan nan nan nan 9 9 67 109 109 139 170 188 188 247 279 45 nan nan nan nan nan nan 0 3 8 8 17 7 7 nan nan nan
nan nan nan nan nan nan nan nan nan nan nan nan nan 0 0 nan nan nan nan nan nan nan nan nan nan nan nan nan nan nan nan nan nan nan nan nan nan nan nan nan nan 5 5 68 104 104 132 170 188 188 247 191 12 nan nan nan nan nan nan 1 1 2 2 5 5 5 0 nan nan
nan nan nan nan nan nan nan nan nan nan nan nan nan 0 0 nan nan nan nan nan nan nan nan nan nan nan nan nan nan nan nan nan nan nan nan nan nan nan nan nan nan 0 0 55 94 94 129 168 205 205 245 127 7 nan nan nan nan 0 0 1 nan nan nan 1 nan nan nan nan nan
nan nan nan nan nan nan nan nan nan nan nan nan nan nan nan nan nan nan nan nan nan nan nan nan nan nan nan nan nan nan nan nan nan nan nan nan nan nan nan nan nan nan nan 37 90 90 128 177 243 243 254 98 19 nan nan nan 0 2 2 2 nan nan nan nan nan nan nan nan 9
nan nan nan nan nan nan nan nan nan nan nan nan nan nan nan nan nan nan nan nan nan nan nan nan nan nan nan nan nan nan nan nan nan nan nan nan nan nan nan nan nan nan nan 32 97 97 136 201 275 275 304 152 39 2 2 nan 1 3 3 1 nan nan nan nan nan nan nan nan 34
nan nan nan nan nan nan nan nan nan nan nan nan nan nan nan nan nan nan nan nan nan nan nan nan nan nan nan nan nan nan nan nan nan nan nan nan nan 2 2 nan nan nan nan 45 99 99 151 224 314 314 340 170 56 13 13 2 3 1 1 1 nan nan nan nan nan nan nan nan 25
nan nan nan nan nan nan nan nan nan nan nan nan nan nan nan nan nan nan nan nan nan nan nan nan nan nan nan nan nan nan nan nan nan nan nan nan nan 10 10 0 nan 0 0 41 106 106 164 245 335 335 371 149 100 46 46 17 7 2 2 0 nan nan nan nan nan nan nan nan nan